sat.trackr.live / text

‹ back to catalog

SCS-01 L

NORAD 63992 · 2025-100L

PAYLOAD ACTIVE UNKNOWN

§ Identity

Operator
Country
PRC
Launch date
2025-05-14
Launch site
JSC
Launch vehicle
Mass (kg)
RCS (m²)

External: N2YO · Heavens-Above · Gunter

§ Orbital elements

Epoch: 2026-05-22T14:04:02.635968Z

Period
94.73 min
Inclination
97.3665°
Eccentricity
0.0011444
Mean motion
15.20032467 rev/d
Perigee alt
497.9 km
Apogee alt
513.6 km
Semi-major
6,883.9 km
B*
5.1875e-4
RAAN
216.1083°
Arg perigee
46.1259°
Mean anomaly
314.0919°
Rev number
5,672

§ Raw data

SCS-01 L1 63992U 25100L   26142.58614162  .00011143  00000+0  51875-3 0  99932 63992  97.3665 216.1083 0011444  46.1259 314.0919 15.20032467 56726

JSON: /api/v1/satellites/63992 · /tle

For live sub-satellite position, see the globe view (requires WebGL).

§ Visibility from observer

Set your observer location to see the next 7 days of passes ≥ 10°. The values pass through the URL so the page stays shareable.

No JS? Fill the form by hand. The geolocation button needs JavaScript.